{"data":{"norad_id":63746,"epoch":"2026-05-25T00:54:50.518080Z","epoch_age_seconds":65046,"freshness":"FRESH","line1":"1 63746U 25088Y   26145.03808470  .00001971  00000+0  28741-3 0  9999","line2":"2 63746  51.8992 147.9661 0000465  69.7325 290.3688 14.79933597 58920","mean_motion":14.79933597,"eccentricity":4.65e-5,"inclination_deg":51.8992,"raan_deg":147.9661,"arg_perigee_deg":69.7325,"mean_anomaly_deg":290.3688,"bstar":0.00028741,"rev_number":5892,"period_min":97.301662920488,"perigee_km":629.20788790494,"apogee_km":629.85960128419,"semimajor_km":7007.6707445946,"source":"CELESTRAK","updated_at":"2026-05-25T13:38:03.930647Z"}}